小惑星A/2018 V3

A/2018 V3

English version
Home page
Updated on February 19, 2020

---------------------------------------------------------------------

・ プロフィール

発見日 2018年11月12日
発見光度 21.9等
発見者 Pan-STARRS 2 (Haleakala)

・ 写真集

・ 軌道要素

Epoch 2019 Aug. 25.0 TT = JDT 2458720.5
T 2019 Sept. 8.69998 TT                                 Bell
q   1.3395046            (2000.0)            P               Q
z  +0.0082145      Peri.    3.50036     +0.57742145     -0.79095629
 +/-0.0000013      Node   308.65547     -0.75522914     -0.61164168
e   0.9889966      Incl.  164.97714     -0.31018286     +0.01681103
H   15.7
From 222 observations 2018 Nov. 2-2020 Feb. 2, mean residual 0".3.

・ 星図

・ 光度変化

        H = 15.5  G = 0.15

---------------------------------------------------------------------

軌道要素はM.P.E.C. 2020-C98に掲載されたものです。
星図はステラナビゲータ Ver.10 (アストロアーツ) で作成したものです。
光度グラフはComet for Windowsで作成したものです。

---------------------------------------------------------------------

Copyright(C) Seiichi Yoshida (comet@aerith.net). All rights reserved.